Change the Weather History Date:

Friday, March 9, 2012

  Actual Average Record
Temperature  
Mean Temperature 27 °F -  
Max Temperature 33 °F 31 °F 66 °F (2002)
Min Temperature 21 °F 14 °F -7 °F (2007)
Degree Days  
Heating Degree Days 38    
Moisture  
Dew Point 25 °F    
Average Humidity 85    
Maximum Humidity 100    
Minimum Humidity 58    
Precipitation  
Precipitation 0.05 in - - ()
Sea Level Pressure  
Sea Level Pressure 30.09 in    
Wind  
Wind Speed 9 mph (WSW)    
Max Wind Speed 18 mph    
Max Gust Speed 29 mph    
Visibility 8 miles    
Events Snow    
Averages and records for this station are not official NWS values.
T = Trace of Precipitation, MM = Missing Value Source: NWS Daily Summary

Daily Weather History Graph

Daily Weather History Graph

Search for Another Location

Airport or City:

Trip Planner

Search our weather history database for the weather conditions in past years. The results will help you decide how hot, cold, wet, or windy it might be!

Date:

Astronomy

Mar. 09, 2012 Rise Set
Actual Time 6:25 AM EST 6:02 PM EST
Civil Twilight 5:56 AM EST 6:30 PM EST
Nautical Twilight 5:22 AM EST 7:04 PM EST
Astronomical Twilight 4:49 AM EST 7:38 PM EST
Moon 8:05 PM EST (3/9) 6:37 AM EST (3/9)
Length of Visible Light 12h 34m
Length of Day
11h 37m
Full, 98% of the Moon is Illuminated
Mar 9
Full
Mar 14
Last Quarter
Mar 22
New
Mar 30
First Quarter
Apr 6
Full

Hourly Weather History & Observations

Time (EST) Temp. Windchill Dew Point Humidity Pressure Visibility Wind Dir Wind Speed Gust Speed Precip Events Conditions
12:55 AM 29.5 °F 20.4 °F 26.1 °F 87% 29.94 in 10.0 mi West 10.4 mph 21.9 mph N/A   Partly Cloudy
1:55 AM 28.6 °F 18.7 °F 25.0 °F 86% 29.96 in 10.0 mi West 11.5 mph - N/A   Clear
2:55 AM 28.8 °F 19.5 °F 25.3 °F 87% 29.98 in 10.0 mi West 10.4 mph - N/A   Overcast
3:17 AM 28.4 °F 19.1 °F 26.6 °F 93% 29.99 in 10.0 mi West 10.4 mph - N/A   Overcast
3:18 AM 28.4 °F 19.1 °F 26.6 °F 93% 29.99 in 10.0 mi West 10.4 mph - N/A   Overcast
3:19 AM 28.4 °F 19.1 °F 26.6 °F 93% 29.99 in 10.0 mi West 10.4 mph - N/A   Overcast
3:21 AM 28.4 °F 18.5 °F 26.6 °F 93% 29.99 in 10.0 mi West 11.5 mph - N/A   Overcast
3:30 AM 28.4 °F 19.1 °F 26.6 °F 93% 30.00 in 10.0 mi West 10.4 mph - N/A   Overcast
3:32 AM 28.4 °F 19.1 °F 26.6 °F 93% 30.00 in 10.0 mi West 10.4 mph - N/A   Overcast
3:55 AM 28.8 °F 21.7 °F 27.0 °F 93% 30.02 in 10.0 mi WNW 6.9 mph - 0.00 in Snow Light Snow
3:56 AM 28.4 °F 21.2 °F 26.6 °F 93% 30.02 in 10.0 mi West 6.9 mph - N/A   Overcast
3:57 AM 28.4 °F 22.2 °F 26.6 °F 93% 30.02 in 10.0 mi West 5.8 mph - N/A   Light Freezing Drizzle
4:07 AM 28.4 °F 21.2 °F 26.6 °F 93% 30.03 in 10.0 mi West 6.9 mph - N/A   Light Freezing Drizzle
4:26 AM 26.6 °F 21.2 °F 24.8 °F 93% 30.04 in 10.0 mi WNW 4.6 mph - N/A   Scattered Clouds
5:55 AM 24.1 °F 18.2 °F 19.4 °F 82% 30.08 in 10.0 mi West 4.6 mph - N/A   Clear
6:55 AM 21.9 °F - 18.9 °F 88% 30.10 in 10.0 mi Calm Calm - N/A   Clear
7:55 AM 24.8 °F - 20.1 °F 82% 30.11 in 10.0 mi Calm Calm - N/A   Clear
8:55 AM 27.9 °F 24.0 °F 19.4 °F 71% 30.10 in 10.0 mi West 3.5 mph - N/A   Clear
9:55 AM 30.7 °F - 20.5 °F 66% 30.09 in 10.0 mi Calm Calm - 0.02 in   Clear
10:55 AM 32.2 °F 25.8 °F 20.1 °F 61% 30.08 in 10.0 mi WSW 6.9 mph - 0.02 in   Partly Cloudy
11:55 AM 33.4 °F 29.1 °F 19.9 °F 58% 30.07 in 10.0 mi Variable 4.6 mph - 0.01 in   Scattered Clouds
12:55 PM 33.4 °F 25.9 °F 21.7 °F 62% 30.07 in 10.0 mi SW 9.2 mph - N/A   Mostly Cloudy
12:59 PM 32.0 °F 27.5 °F 21.2 °F 64% 30.07 in 10.0 mi Variable 4.6 mph - N/A   Mostly Cloudy
1:11 PM 33.8 °F 27.7 °F 21.2 °F 60% 30.06 in 10.0 mi West 6.9 mph - N/A   Mostly Cloudy
1:12 PM 33.8 °F 27.0 °F 21.2 °F 60% 30.06 in 10.0 mi WSW 8.1 mph - N/A   Mostly Cloudy
1:55 PM 32.7 °F 25.7 °F 22.6 °F 66% 30.06 in 10.0 mi SW 8.1 mph - 0.00 in   Overcast
2:05 PM 32.0 °F 22.5 °F 24.8 °F 75% 30.06 in 10.0 mi SSW 12.7 mph - N/A   Overcast
2:15 PM 32.0 °F 24.2 °F 28.4 °F 87% 30.06 in 10.0 mi SSW 9.2 mph - N/A   Overcast
2:55 PM 32.0 °F 25.6 °F 25.9 °F 78% 30.06 in 10.0 mi SW 6.9 mph - 0.00 in   Mostly Cloudy
3:18 PM 32.0 °F 26.4 °F 24.8 °F 75% 30.07 in 10.0 mi South 5.8 mph - N/A   Scattered Clouds
3:36 PM 32.0 °F 26.4 °F 24.8 °F 75% 30.07 in 10.0 mi WSW 5.8 mph - N/A   Mostly Cloudy
3:40 PM 32.0 °F 26.4 °F 24.8 °F 75% 30.07 in 10.0 mi WSW 5.8 mph - N/A   Mostly Cloudy
3:43 PM 32.0 °F 27.5 °F 24.8 °F 75% 30.07 in 10.0 mi WSW 4.6 mph - N/A   Mostly Cloudy
3:48 PM 32.0 °F 28.7 °F 24.8 °F 75% 30.07 in 10.0 mi WSW 3.5 mph - N/A   Mostly Cloudy
3:49 PM 32.0 °F - 24.8 °F 75% 30.07 in 10.0 mi Calm Calm - N/A   Mostly Cloudy
3:55 PM 31.5 °F - 26.1 °F 80% 30.07 in 10.0 mi Calm Calm - 0.00 in   Overcast
4:00 PM 32.0 °F 27.5 °F 26.6 °F 80% 30.07 in 9.0 mi SW 4.6 mph - N/A   Overcast
4:20 PM 30.2 °F 23.4 °F 26.6 °F 86% 30.07 in 2.5 mi SSW 6.9 mph - N/A Snow Light Snow
4:27 PM 30.2 °F 24.3 °F 26.6 °F 86% 30.07 in 3.0 mi South 5.8 mph - N/A Snow Light Snow
4:38 PM 30.2 °F 26.7 °F 28.4 °F 93% 30.07 in 2.5 mi SSW 3.5 mph - N/A Snow Light Snow
4:40 PM 30.2 °F 26.7 °F 28.4 °F 93% 30.07 in 3.0 mi SSW 3.5 mph - N/A Snow Light Snow
4:54 PM 30.2 °F 25.4 °F 28.4 °F 93% 30.06 in 6.0 mi SSE 4.6 mph - N/A Snow Light Snow
4:55 PM 29.7 °F 24.7 °F 28.9 °F 97% 30.07 in 7.0 mi SSE 4.6 mph - 0.00 in Snow Light Snow
5:07 PM 30.2 °F 26.7 °F 28.4 °F 93% 30.08 in 10.0 mi South 3.5 mph - N/A Snow Light Snow
5:08 PM 30.2 °F 26.7 °F 28.4 °F 93% 30.08 in 10.0 mi SSW 3.5 mph - N/A Snow Light Snow
5:11 PM 30.2 °F 26.7 °F 28.4 °F 93% 30.08 in 10.0 mi SSW 3.5 mph - N/A   Overcast
5:29 PM 30.2 °F 24.3 °F 28.4 °F 93% 30.08 in 10.0 mi SSW 5.8 mph - N/A   Overcast
5:35 PM 30.2 °F 25.4 °F 28.4 °F 93% 30.09 in 10.0 mi SW 4.6 mph - N/A   Overcast
5:48 PM 30.2 °F 24.3 °F 28.4 °F 93% 30.09 in 10.0 mi Variable 5.8 mph - N/A Snow Light Snow
5:55 PM 30.6 °F 23.8 °F 29.5 °F 96% 30.09 in 5.0 mi SW 6.9 mph - 0.00 in Snow Light Snow
6:01 PM 30.2 °F 20.8 °F 30.2 °F 100% 30.10 in 2.5 mi SW 11.5 mph - N/A Snow Light Snow
6:02 PM 30.2 °F 20.8 °F 30.2 °F 100% 30.10 in 2.0 mi SW 11.5 mph - N/A Snow Light Snow
6:03 PM 30.2 °F 21.3 °F 30.2 °F 100% 30.10 in 1.8 mi WSW 10.4 mph - N/A Snow Light Snow
6:04 PM 30.2 °F 21.3 °F 30.2 °F 100% 30.10 in 1.5 mi WSW 10.4 mph - N/A Snow Light Snow
6:05 PM 30.2 °F 20.8 °F 30.2 °F 100% 30.10 in 1.2 mi WSW 11.5 mph - N/A Snow Light Snow
6:07 PM 30.2 °F 18.9 °F 30.2 °F 100% 30.10 in 1.0 mi WSW 16.1 mph 20.7 mph N/A Snow Light Snow
6:10 PM 30.2 °F 19.8 °F 30.2 °F 100% 30.11 in 1.2 mi West 13.8 mph 20.7 mph N/A Snow Light Snow
6:13 PM 30.2 °F 20.8 °F 30.2 °F 100% 30.11 in 1.5 mi West 11.5 mph 20.7 mph N/A Snow Light Snow
6:14 PM 30.2 °F 21.3 °F 30.2 °F 100% 30.11 in 2.0 mi West 10.4 mph 20.7 mph N/A Snow Light Snow
6:15 PM 30.2 °F 21.3 °F 30.2 °F 100% 30.11 in 2.5 mi West 10.4 mph 20.7 mph N/A Snow Light Snow
6:16 PM 30.2 °F 20.2 °F 30.2 °F 100% 30.11 in 3.0 mi West 12.7 mph 20.7 mph N/A Snow Light Snow
6:19 PM 30.2 °F 21.3 °F 28.4 °F 93% 30.11 in 9.0 mi West 10.4 mph 21.9 mph N/A Snow Light Snow
6:21 PM 30.2 °F 19.3 °F 28.4 °F 93% 30.11 in 10.0 mi West 15.0 mph 21.9 mph N/A   Overcast
6:24 PM 30.2 °F 19.8 °F 28.4 °F 93% 30.12 in 10.0 mi West 13.8 mph 21.9 mph N/A   Overcast
6:25 PM 30.2 °F 18.5 °F 28.4 °F 93% 30.12 in 10.0 mi West 17.3 mph 21.9 mph N/A   Overcast
6:35 PM 30.2 °F 19.8 °F 23.0 °F 75% 30.12 in 10.0 mi West 13.8 mph 28.8 mph N/A   Overcast
6:55 PM 29.1 °F 18.9 °F 20.7 °F 71% 30.14 in 10.0 mi West 12.7 mph 25.3 mph 0.00 in   Scattered Clouds
7:55 PM 27.7 °F 16.6 °F 16.7 °F 63% 30.15 in 10.0 mi West 13.8 mph 23.0 mph N/A   Scattered Clouds
8:55 PM 27.5 °F 16.8 °F 17.1 °F 65% 30.17 in 10.0 mi West 12.7 mph 24.2 mph N/A   Mostly Cloudy
9:26 PM 28.4 °F 16.6 °F 17.6 °F 64% 30.18 in 10.0 mi West 16.1 mph 23.0 mph N/A   Overcast
9:37 PM 26.6 °F 13.8 °F 19.4 °F 74% 30.18 in 10.0 mi West 17.3 mph 24.2 mph N/A Snow Light Snow
9:46 PM 26.6 °F 13.8 °F 19.4 °F 74% 30.18 in 8.0 mi West 17.3 mph 25.3 mph N/A Snow Light Snow
9:55 PM 26.6 °F 15.2 °F 19.4 °F 74% 30.19 in 7.0 mi West 13.8 mph 25.3 mph 0.00 in Snow Light Snow
10:31 PM 26.6 °F 14.7 °F 21.2 °F 80% 30.19 in 3.0 mi West 15.0 mph 24.2 mph N/A Snow Light Snow
10:33 PM 26.6 °F 14.3 °F 21.2 °F 80% 30.19 in 2.5 mi West 16.1 mph 24.2 mph N/A Snow Light Snow
10:47 PM 24.8 °F 12.9 °F 21.2 °F 86% 30.19 in 3.0 mi West 13.8 mph 23.0 mph N/A Snow Light Snow
10:55 PM 25.3 °F 13.1 °F 21.6 °F 86% 30.19 in 4.0 mi West 15.0 mph 23.0 mph 0.00 in Snow Light Snow
10:56 PM 24.8 °F 11.9 °F 21.2 °F 86% 30.19 in 4.0 mi WSW 16.1 mph 21.9 mph N/A Snow Light Snow
11:55 PM 25.3 °F 11.8 °F 18.7 °F 76% 30.20 in 9.0 mi West 18.4 mph 28.8 mph 0.00 in Snow Light Snow